Cortez, CO

2:54 AM MDT on July 27, 2017 (GMT -0600)
Cortez Municipal

Weather History for KCEZ - May, 2013

Change the Weather History Date:

Friday, May 24, 2013

  Actual Average Record
Temperature  
Mean Temperature 63 °F 58 °F  
Max Temperature 83 °F 77 °F 90 °F (2000)
Min Temperature 42 °F 39 °F 30 °F (2007)
Degree Days  
Heating Degree Days 2 7  
Month to date heating degree days 213 251  
Since 1 July heating degree days 6356 6321  
Cooling Degree Days 0 0  
Month to date cooling degree days 0 0  
Year to date cooling degree days 0 0  
Growing Degree Days 12 (Base 50)    
Moisture  
Dew Point 18 °F    
Average Humidity 25    
Maximum Humidity 45    
Minimum Humidity 5    
Precipitation  
Precipitation 0.00 in 0.02 in 0.40 in (2014)
Month to date precipitation 0.72 0.78  
Year to date precipitation 3.33 5.00  
Sea Level Pressure  
Sea Level Pressure 29.87 in    
Wind  
Wind Speed 9 mph (SSW)    
Max Wind Speed 25 mph    
Max Gust Speed 35 mph    
Visibility 10 miles    
Events      
T = Trace of Precipitation, MM = Missing Value Source: NWS Daily Summary

Daily Weather History Graph

Daily Weather History Graph

Search for Another Location

Airport or City:

Trip Planner

Search our weather history database for the weather conditions in past years. The results will help you decide how hot, cold, wet, or windy it might be!

Date:

Astronomy

May. 24, 2013 Rise Set
Actual Time 5:59 AM MDT 8:23 PM MDT
Civil Twilight 5:29 AM MDT 8:53 PM MDT
Nautical Twilight 4:52 AM MDT 9:30 PM MDT
Astronomical Twilight 4:11 AM MDT 10:11 PM MDT
Moon 8:10 PM MDT (5/24) 5:32 AM MDT (5/24)
Length of Visible Light 15h 24m
Length of Day
14h 24m
Full, 100% of the Moon is Illuminated
May 24
Full
May 24
Full
May 31
Last Quarter
Jun 8
New
Jun 16
First Quarter

Hourly Weather History & Observations

Time (MDT) Temp. Windchill Dew Point Humidity Pressure Visibility Wind Dir Wind Speed Gust Speed Precip Events Conditions
12:53 AM 63.0 °F - 15.1 °F 16% 29.78 in 10.0 mi SSW 15.0 mph - N/A   Clear
1:53 AM 54.0 °F - 18.0 °F 24% 29.82 in 10.0 mi Calm Calm - N/A   Clear
2:53 AM 52.0 °F - 21.9 °F 31% 29.83 in 10.0 mi South 6.9 mph - N/A   Clear
3:53 AM 46.9 °F - 21.0 °F 36% 29.84 in 10.0 mi ENE 5.8 mph - N/A   Clear
4:53 AM 45.0 °F 40.1 °F 21.0 °F 39% 29.86 in 10.0 mi ENE 9.2 mph - N/A   Clear
5:53 AM 43.0 °F 39.5 °F 23.0 °F 45% 29.90 in 10.0 mi ENE 5.8 mph - N/A   Clear
6:53 AM 46.0 °F - 24.1 °F 42% 29.93 in 10.0 mi Calm Calm - N/A   Clear
7:53 AM 55.0 °F - 25.0 °F 31% 29.92 in 10.0 mi Calm Calm - N/A   Clear
8:53 AM 63.0 °F - 26.1 °F 25% 29.93 in 10.0 mi SW 4.6 mph - N/A   Clear
9:53 AM 70.0 °F - 21.9 °F 16% 29.93 in 10.0 mi SW 15.0 mph - N/A   Clear
10:53 AM 73.0 °F - 19.9 °F 14% 29.92 in 10.0 mi South 15.0 mph 20.7 mph N/A   Clear
11:53 AM 75.0 °F - 17.1 °F 11% 29.92 in 10.0 mi SSW 12.7 mph 19.6 mph N/A   Clear
12:53 PM 79.0 °F - 15.1 °F 9% 29.90 in 10.0 mi SSW 17.3 mph 28.8 mph N/A   Clear
1:53 PM 81.0 °F - 12.9 °F 8% 29.90 in 10.0 mi SSW 16.1 mph 26.5 mph N/A   Clear
2:53 PM 79.0 °F - 10.0 °F 7% 29.88 in 10.0 mi SSW 11.5 mph 25.3 mph N/A   Clear
3:53 PM 82.9 °F - 12.9 °F 7% 29.87 in 10.0 mi South 11.5 mph 24.2 mph N/A   Clear
4:53 PM 82.0 °F - 6.1 °F 6% 29.87 in 10.0 mi SSW 19.6 mph 32.2 mph N/A   Clear
5:53 PM 80.1 °F - 10.9 °F 7% 29.86 in 10.0 mi SW 12.7 mph 20.7 mph N/A   Clear
6:53 PM 78.1 °F - 17.1 °F 10% 29.85 in 10.0 mi West 11.5 mph - N/A   Clear
7:53 PM 75.0 °F - 17.1 °F 11% 29.83 in 10.0 mi SW 6.9 mph - N/A   Clear
8:53 PM 63.0 °F - 17.1 °F 17% 29.85 in 10.0 mi South 8.1 mph - N/A   Clear
9:53 PM 63.0 °F - 12.0 °F 14% 29.85 in 10.0 mi SSW 8.1 mph - N/A   Clear
10:53 PM 55.0 °F - 19.0 °F 24% 29.88 in 10.0 mi ENE 5.8 mph - N/A   Clear
11:53 PM 50.0 °F - 21.9 °F 33% 29.88 in 10.0 mi ENE 10.4 mph - N/A   Clear